Regional Weather Roundup
Issued by NWS

Home | Current Version | Previous Version | Text Only | Print | Product List | Glossary Off
Versions: 1 2 3 4 5 6 7 8 9 10 11 12 13 14 15 16 17 18 19 20 21 22 23 24 25 26 27

000
ASUS45 KBOU 250407
RWRCO

WEATHER ROUNDUP FOR COLORADO
NATIONAL WEATHER SERVICE DENVER/BOULDER CO
1000 PM MDT SUN SEP 24 2017

NOTE: "FAIR" INDICATES FEW OR NO CLOUDS BELOW 12000 FEET WITH NO
SIGNIFICANT WEATHER AND/OR OBSTRUCTIONS TO VISIBILITY.

COZ001>005-013-030-031-250500-
...NORTHWEST COLORADO...

CITY           SKY/WX    TMP DP  RH WIND       PRES   REMARKS
CRAIG          CLOUDY    39  32  76 SW5       30.10R
HAYDEN         FAIR      40  30  67 CALM      30.11R
MEEKER         FAIR      37  32  82 SE5       30.09R
RABBIT EARS PA FOG       28  28 100 W6        30.17R VSB 1/4 WCI  22
STEAMBOAT SPGS FAIR      38  32  76 SE3       30.10R
WALDEN         CLOUDY    36  32  87 E9        30.13F
$$

COZ006>008-011-250500-
...WEST CENTRAL VALLEYS...

CITY           SKY/WX    TMP DP  RH WIND       PRES   REMARKS
GRAND JUNCTION FAIR      46  29  51 CALM      30.03R
MONTROSE       FAIR      45  26  47 VRB6      30.07R
EAGLE          CLOUDY    45  21  38 W6        30.09R
RIFLE          FAIR      47  30  51 E6        30.06R
DELTA          NOT AVBL
NUCLA          FAIR      45  23  42 E7        30.09S
$$

COZ017>023-064>068-250500-
...SOUTHWEST COLORADO...

CITY           SKY/WX    TMP DP  RH WIND       PRES   REMARKS
DURANGO        FAIR      42  22  44 CALM      30.04S
CORTEZ         FAIR      38  30  73 E5        30.06R
PAGOSA SPRINGS FAIR      39  27  61 CALM      30.10R
TELLURIDE      FAIR      35  20  53 SE5       30.16S WCI  31
WOLF CREEK PAS FAIR      28  18  64 S9        30.27S WCI  20
$$

COZ009-010-012-014-032>034-037-058>063-250500-
...CENTRAL COLORADO...

CITY           SKY/WX    TMP DP  RH WIND       PRES   REMARKS
ASPEN          FAIR      37  25  61 SW7       30.10R
BUENA VISTA    FAIR      45  23  42 CALM      30.09R
COPPER MTN     CLOUDY    28  21  74 MISG      30.22S
BERTHOUD PASS  HAZE      21  14  73 W13G18    30.23R VSB<1/4 WCI   9
COTTONWOOD PAS FAIR      43  25  49 W5        30.15S
GUNNISON       FAIR      39  21  48 CALM      30.11S
KREMMLING      MOCLDY    50  19  29 E5        30.11S
LEADVILLE      FAIR      32  20  61 N9        30.14R WCI  24
MONARCH PASS   FAIR      28  19  69 W14       30.32S WCI  17
SALIDA         FAIR      48  24  39 SW10      30.15R
SUNLIGHT       FAIR      27  19  74 SW3       30.22R
WILKERSON PASS FAIR      32  28  86 S8        30.21S WCI  25
$$

COZ069>075-250500-
...SAN LUIS VALLEY/SANGRE DE CRISTO MOUNTAINS...

CITY           SKY/WX    TMP DP  RH WIND       PRES   REMARKS
ALAMOSA        FAIR      39  27  62 CALM      30.06R
DEL NORTE      FAIR      38  25  59 W12       30.09S
LA VETA PASS   FAIR      39  21  48 S16G24    30.28S
SAGUACHE       FAIR      43  23  45 NW13      30.09R
$$

COZ035-036-038>040-250500-
...NORTHERN COLORADO FRONT RANGE...

CITY           SKY/WX    TMP DP  RH WIND       PRES   REMARKS
DENVER INTL AP DRIZZLE   47  45  93 N8        30.05R FOG
DMNS CITY PARK   N/A     47  47 100 NE12      30.05R
AURORA         DRIZZLE   47  47 100 N7        30.06R
FRONT RANGE AP CLOUDY    48  46  93 NE8       30.05R FOG
ERIE MUNI ARPT CLOUDY    48  47  97 CALM      30.11R
BOULDER MUN AP RAIN      46  46 100 N3        30.06R
CENTENNIAL     DRIZZLE   46  46 100 NW12      30.05R FOG
BROOMFIELD     LGT RAIN  46  46 100 NW7       30.07R FOG
FORT COLLINS   LGT RAIN  47  46  97 N6        30.07S
LONGMONT       DRIZZLE   49  47  93 N5        30.08R
$$

COZ041-046-047-076>085-087-088-250500-
...PIKES PEAK/PALMER DIVIDE AND SOUTHERN FOOTHILLS...

CITY           SKY/WX    TMP DP  RH WIND       PRES   REMARKS
COLO. SPRINGS  CLOUDY    50  47  89 S5        30.04S
A. F. ACADEMY  CLOUDY    48  46  93 SE3       30.04R
SCHRIEVER AFB  FAIR      46  45  94 MISG      30.04S
CHEYENNE MTN     N/A     46  45  98 CALM      29.99S
ELLICOTT       CLOUDY   N/A N/A N/A CALM      30.02R
FALCON         MOCLDY    46  46  97 W3        30.06S
FORT CARSON    FAIR      49  48  97 S5        30.02R
LIMON            N/A    N/A N/A N/A MISG        N/A
MONUMENT HILL  FOG       43  43 100 NW7       30.08R VSB 1/4
CANON CITY     CLOUDY    54  52  94 MISG      30.01S
WALSENBURG     CLOUDY    54  52  94 CALM      30.02F
TRINIDAD       CLOUDY    52  52 100 N3        30.02R FOG
$$

COZ042>045-048>051-090-091-250500-
...NORTHEAST COLORADO...

CITY           SKY/WX    TMP DP  RH WIND       PRES   REMARKS
GREELEY ARPT   CLOUDY    48  47  96 CALM      30.06R
AKRON          LGT RAIN  47  46  97 NE9       30.01R FOG
BURLINGTON     CLOUDY    51  51 100 NE9       29.97S
WRAY           CLOUDY   N/A N/A N/A NE13G18   29.98S HAZE
YUMA           TSTM      46  46 100 N7        30.02R
STERLING       DRIZZLE   50  48  93 NE5       30.01S
HOLYOKE        CLOUDY    54  50  87 NE14      30.01R
FORT MORGAN    DRIZZLE   48  46  94 NE6       30.03F
$$

COZ086-089-092>099-250500-
...SOUTHEAST COLORADO...

CITY           SKY/WX    TMP DP  RH WIND       PRES   REMARKS
PUEBLO         CLOUDY    54  50  86 E3        29.99R
LA JUNTA       CLOUDY    54  53  97 N7        29.96S
LAMAR          CLOUDY    56  53  90 N7        29.92R
SPRINGFIELD      N/A     56  32  40 N12       29.92S
$$




USA.gov is the U.S. government's official web portal to all federal, state and local government web resources and services.